Diane — WDF2440 — position and weather

sailwx.info

Track history (hours):
 
Tides and Currents Weather Stations Pressure Air Temp Water Temp Dewpoint Dewpoint Depression Visibility Wind Speed Wind Dir Waves Ship Positions

Diane

Owner: Enterprise Marine Services, LLC, San Antonio, TX. More information available from US FCC via Universal Licensing System and Coast Guard Vessel Documentation Center.

Last reported at 2017-Nov-23 03:07 UTC. Time now 2017-Nov-23 10:57 UTC.
Position N 29°50' W 091°58'.

Length 24 m; draft 2.9 m.

Type: . MMSI: 367131150.

Date/timePositionNaut miles runAvg speedWind from/ knotsBaromVisibWave heightAir tempDewpointWater temp
2017-Nov-23 03:07N 29°50' W 091°58'1 5.2
2017-Nov-23 02:54N 29°50' W 091°59'2 5.2
2017-Nov-23 02:30N 29°49' W 092°01'3 5.1
2017-Nov-23 02:00N 29°48' W 092°04'3 5.2
2017-Nov-23 01:30N 29°48' W 092°07'3 5.5
2017-Nov-23 01:00N 29°47' W 092°10'2 4.8
2017-Nov-23 00:30N 29°47' W 092°13'2 4.8
2017-Nov-23 00:00N 29°48' W 092°15'3 5.4
2017-Nov-22 23:30N 29°50' W 092°18'  
2017-Nov-19 12:27N 29°47' W 095°05'2 0.1
2017-Nov-18 17:08N 29°46' W 095°05'1 6.0
2017-Nov-18 16:54N 29°45' W 095°04'3 5.8
2017-Nov-18 16:26N 29°43' W 095°01'2 5.9
2017-Nov-18 16:00N 29°41' W 094°59'3 6.2
2017-Nov-18 15:30N 29°38' W 094°58'4 7.2
2017-Nov-18 15:00N 29°35' W 094°56'4 7.1
2017-Nov-18 14:30N 29°32' W 094°54'60 1.3
2017-Nov-16 14:50N 29°58' W 093°52'0 0.0
2017-Nov-16 14:18N 29°58' W 093°52'0 0.0
2017-Nov-16 13:50N 29°58' W 093°52'0 0.0
2017-Nov-16 13:30N 29°58' W 093°52'0 0.0
2017-Nov-16 12:56N 29°58' W 093°52'0 0.0
2017-Nov-16 11:47N 29°58' W 093°52'0 0.0
2017-Nov-16 11:29N 29°58' W 093°52'0 0.0
2017-Nov-16 10:57N 29°58' W 093°52'0 0.0
2017-Nov-16 10:28N 29°58' W 093°52'0 0.0
2017-Nov-16 10:00N 29°58' W 093°52'0 0.0
2017-Nov-16 09:30N 29°58' W 093°52'0 0.0
2017-Nov-16 09:00N 29°58' W 093°52'0 0.0
2017-Nov-16 08:27N 29°58' W 093°52'0 0.0
2017-Nov-16 05:36N 29°58' W 093°52'0 0.0
2017-Nov-16 05:26N 29°58' W 093°52'0 0.0
2017-Nov-16 03:44N 29°58' W 093°52'0 0.0
2017-Nov-16 03:10N 29°58' W 093°52'0 0.0
2017-Nov-16 02:44N 29°58' W 093°52'  
2017-Nov-13 22:09N 29°33' W 094°54'1 6.4
2017-Nov-13 22:00N 29°33' W 094°55'  
Track history (hours):
 
Tides and Currents Weather Stations Pressure Air Temp Water Temp Dewpoint Dewpoint Depression Visibility Wind Speed Wind Dir Waves Ship Positions

Diane

Owner: Enterprise Marine Services, LLC, San Antonio, TX. More information available from US FCC via Universal Licensing System and Coast Guard Vessel Documentation Center.

Last reported at 2017-Nov-23 03:07 UTC. Time now 2017-Nov-23 10:57 UTC.
Position N 29°50' W 091°58'.

Length 24 m; draft 2.9 m.

Type: . MMSI: 367131150.

Date/timePositionNaut miles runAvg speedWind from/ knotsBaromVisibWave heightAir tempDewpointWater temp
2017-Nov-23 03:07N 29°50' W 091°58'1 5.2
2017-Nov-23 02:54N 29°50' W 091°59'2 5.2
2017-Nov-23 02:30N 29°49' W 092°01'3 5.1
2017-Nov-23 02:00N 29°48' W 092°04'3 5.2
2017-Nov-23 01:30N 29°48' W 092°07'3 5.5
2017-Nov-23 01:00N 29°47' W 092°10'2 4.8
2017-Nov-23 00:30N 29°47' W 092°13'2 4.8
2017-Nov-23 00:00N 29°48' W 092°15'3 5.4
2017-Nov-22 23:30N 29°50' W 092°18'  
2017-Nov-19 12:27N 29°47' W 095°05'2 0.1
2017-Nov-18 17:08N 29°46' W 095°05'1 6.0
2017-Nov-18 16:54N 29°45' W 095°04'3 5.8
2017-Nov-18 16:26N 29°43' W 095°01'2 5.9
2017-Nov-18 16:00N 29°41' W 094°59'3 6.2
2017-Nov-18 15:30N 29°38' W 094°58'4 7.2
2017-Nov-18 15:00N 29°35' W 094°56'4 7.1
2017-Nov-18 14:30N 29°32' W 094°54'60 1.3
2017-Nov-16 14:50N 29°58' W 093°52'0 0.0
2017-Nov-16 14:18N 29°58' W 093°52'0 0.0
2017-Nov-16 13:50N 29°58' W 093°52'0 0.0
2017-Nov-16 13:30N 29°58' W 093°52'0 0.0
2017-Nov-16 12:56N 29°58' W 093°52'0 0.0
2017-Nov-16 11:47N 29°58' W 093°52'0 0.0
2017-Nov-16 11:29N 29°58' W 093°52'0 0.0
2017-Nov-16 10:57N 29°58' W 093°52'0 0.0
2017-Nov-16 10:28N 29°58' W 093°52'0 0.0
2017-Nov-16 10:00N 29°58' W 093°52'0 0.0
2017-Nov-16 09:30N 29°58' W 093°52'0 0.0
2017-Nov-16 09:00N 29°58' W 093°52'0 0.0
2017-Nov-16 08:27N 29°58' W 093°52'0 0.0
2017-Nov-16 05:36N 29°58' W 093°52'0 0.0
2017-Nov-16 05:26N 29°58' W 093°52'0 0.0
2017-Nov-16 03:44N 29°58' W 093°52'0 0.0
2017-Nov-16 03:10N 29°58' W 093°52'0 0.0
2017-Nov-16 02:44N 29°58' W 093°52'  
2017-Nov-13 22:09N 29°33' W 094°54'1 6.4
2017-Nov-13 22:00N 29°33' W 094°55'  

Dump ship's entire track history